Bedford Park, IL

3:26 AM CDT on July 24, 2016 (GMT -0500)
Chicago-Midway

Weather History for KMDW - April, 2012

Change the Weather History Date:

Sunday, April 29, 2012

  Actual Average Record
Temperature  
Mean Temperature 51 °F 56 °F  
Max Temperature 58 °F 65 °F 89 °F (1942)
Min Temperature 44 °F 46 °F 31 °F (1958)
Degree Days  
Heating Degree Days 14 10  
Month to date heating degree days 414 439  
Since 1 July heating degree days 5762  
Cooling Degree Days 0 1  
Month to date cooling degree days 3 11  
Year to date cooling degree days 54 12  
Moisture  
Dew Point 39 °F    
Average Humidity 64    
Maximum Humidity 83    
Minimum Humidity 33    
Precipitation  
Precipitation 0.11 in 0.13 in 1.62 in (1963)
Month to date precipitation 2.33 3.52  
Year to date precipitation 6.37 10.24  
Sea Level Pressure  
Sea Level Pressure 30.18 in    
Wind  
Wind Speed 10 mph (East)    
Max Wind Speed 17 mph    
Max Gust Speed 23 mph    
Visibility 10 miles    
Events Rain    
T = Trace of Precipitation, MM = Missing Value Source: NWS Daily Summary

Daily Weather History Graph

Daily Weather History Graph

Search for Another Location

Airport or City:

Trip Planner

Search our weather history database for the weather conditions in past years. The results will help you decide how hot, cold, wet, or windy it might be!

Date:

Astronomy

Apr. 29, 2012 Rise Set
Actual Time 5:49 AM CDT 7:47 PM CDT
Civil Twilight 5:19 AM CDT 8:18 PM CDT
Nautical Twilight 4:42 AM CDT 8:55 PM CDT
Astronomical Twilight 4:02 AM CDT 9:35 PM CDT
Moon 12:33 PM CDT (4/29) 1:46 AM CDT (4/29)
Length of Visible Light 14h 58m
Length of Day
13h 58m
First Quarter, 53% of the Moon is Illuminated
Apr 29
First Quarter
May 5
Full
May 12
Last Quarter
May 20
New
May 28
First Quarter

Hourly Weather History & Observations

Time (CDT) Temp. Windchill Dew Point Humidity Pressure Visibility Wind Dir Wind Speed Gust Speed Precip Events Conditions
12:51 AM 46.0 °F 41.4 °F 36.0 °F 68% 30.24 in 10.0 mi East 9.2 mph - N/A   Mostly Cloudy
1:51 AM 46.0 °F 42.5 °F 37.0 °F 71% 30.22 in 10.0 mi East 6.9 mph - N/A   Mostly Cloudy
2:51 AM 45.0 °F 40.6 °F 37.0 °F 74% 30.22 in 10.0 mi ENE 8.1 mph - N/A   Mostly Cloudy
3:51 AM 44.1 °F 39.5 °F 35.1 °F 71% 30.23 in 10.0 mi East 8.1 mph - N/A   Scattered Clouds
4:51 AM 45.0 °F 40.1 °F 35.1 °F 68% 30.24 in 10.0 mi East 9.2 mph - N/A   Partly Cloudy
5:51 AM 44.6 °F 39.2 °F 33.8 °F 66% 30.24 in 10.0 mi East 10.4 mph - N/A   Mostly Cloudy
6:51 AM 45.0 °F 39.7 °F 30.9 °F 58% 30.26 in 10.0 mi East 10.4 mph - N/A   Mostly Cloudy
7:51 AM 46.9 °F - 33.1 °F 59% 30.26 in 10.0 mi East 13.8 mph - N/A   Mostly Cloudy
8:51 AM 48.9 °F - 34.0 °F 56% 30.24 in 10.0 mi ENE 15.0 mph 23.0 mph N/A   Mostly Cloudy
9:51 AM 51.1 °F - 36.0 °F 56% 30.27 in 10.0 mi East 11.5 mph - N/A   Mostly Cloudy
10:51 AM 50.0 °F - 37.0 °F 61% 30.26 in 10.0 mi ENE 12.7 mph - N/A   Mostly Cloudy
11:51 AM 53.1 °F - 37.9 °F 57% 30.25 in 10.0 mi NE 13.8 mph - N/A   Overcast
12:51 PM 53.1 °F - 37.0 °F 55% 30.21 in 10.0 mi ENE 15.0 mph - N/A   Overcast
1:51 PM 55.0 °F - 36.0 °F 49% 30.18 in 10.0 mi ENE 16.1 mph - N/A   Overcast
2:51 PM 57.0 °F - 35.1 °F 44% 30.17 in 10.0 mi East 12.7 mph - N/A   Overcast
3:51 PM 55.9 °F - 35.1 °F 45% 30.16 in 10.0 mi East 10.4 mph - N/A   Overcast
4:51 PM 55.9 °F - 39.9 °F 55% 30.14 in 10.0 mi NE 8.1 mph - 0.00 in Rain Light Rain
5:51 PM 54.0 °F - 42.1 °F 64% 30.13 in 10.0 mi ENE 5.8 mph - 0.00 in Rain Light Rain
6:51 PM 53.1 °F - 45.0 °F 74% 30.11 in 9.0 mi ENE 5.8 mph - 0.03 in Rain Light Rain
7:51 PM 52.0 °F - 46.9 °F 83% 30.08 in 7.0 mi East 8.1 mph - 0.02 in Rain Light Rain
8:43 PM 55.4 °F - 48.2 °F 77% 30.09 in 10.0 mi ESE 6.9 mph - 0.02 in Rain Light Rain
8:51 PM 55.0 °F - 48.0 °F 77% 30.10 in 10.0 mi ESE 6.9 mph - 0.02 in Rain Light Rain
9:51 PM 53.1 °F - 48.0 °F 83% 30.09 in 10.0 mi ESE 10.4 mph - 0.02 in Rain Light Rain
10:51 PM 53.1 °F - 48.0 °F 83% 30.08 in 10.0 mi Calm Calm - 0.02 in Rain Light Rain
11:09 PM 53.6 °F - 46.4 °F 77% 30.07 in 10.0 mi East 6.9 mph - 0.00 in Rain Light Rain
11:51 PM 53.1 °F - 46.0 °F 77% 30.06 in 10.0 mi ESE 9.2 mph - 0.00 in   Overcast